IN3HNH-13 Weather Reports


time (UTC)temp
C
wind
direction
speed
KPH
gust
KPH
rain 1hr
cm
rain 24hr
cm
rain mn
cm
humidity
%
barometer
mb
20260507060008 11 162 0.0 0.0 0.00 0.23 0.03 89 1012.1
20260507054559 11 162 0.0 0.0 0.00 0.23 0.03 90 1012.0
20260507053047 11 162 0.0 0.0 0.00 0.23 0.03 91 1012.1
20260507051536 11 162 0.0 0.0 0.00 0.23 0.03 90 1012.0
20260507050039 11 163 0.0 0.0 0.00 0.23 0.03 90 1011.8
20260507044559 11 162 0.0 0.0 0.00 0.25 0.03 91 1011.6
20260507043042 11 162 0.0 0.0 0.00 0.25 0.03 91 1011.5
20260507041532 11 162 0.0 0.0 0.00 0.25 0.03 91 1011.3
20260507040023 11 163 0.0 0.0 0.00 0.25 0.03 90 1011.0
20260507034505 11 162 0.0 0.0 0.00 0.25 0.03 93 1011.1
20260507033051 11 163 0.0 0.0 0.00 0.25 0.03 94 1011.2
20260507031538 11 163 0.0 0.0 0.00 0.25 0.03 94 1011.3
20260507030026 11 162 0.0 0.0 0.00 0.25 0.03 93 1011.1
20260507024508 11 162 0.0 0.0 0.00 0.25 0.03 93 1011.2
20260507023045 11 162 0.0 0.0 0.00 0.25 0.03 93 1011.1
20260507021545 11 162 0.0 0.0 0.00 0.25 0.03 93 1011.1
20260507020015 11 162 0.0 0.0 0.00 0.25 0.03 93 1011.1
20260507014548 11 162 0.0 0.0 0.00 0.25 0.03 93 1011.0
20260507013034 11 162 0.0 0.0 0.00 0.25 0.03 93 1011.1
20260507011604 11 162 0.0 0.0 0.00 0.25 0.03 93 1011.0
20260507010048 11 162 0.0 0.0 0.00 0.25 0.03 93 1011.0
20260507004522 11 162 0.0 0.0 0.00 0.25 0.03 93 1010.9
20260507003038 11 162 0.0 0.0 0.00 0.25 0.03 93 1010.8
20260507001511 11 162 0.0 0.0 0.00 0.25 0.03 93 1010.8
20260507000049 11 162 0.0 0.0 0.00 0.25 0.03 93 1010.8
20260506234528 11 162 0.0 0.0 0.00 0.25 0.03 93 1010.9
20260506233008 10 162 0.0 0.0 0.00 0.25 0.03 93 1010.9
20260506231547 11 162 0.0 0.0 0.03 0.25 0.03 93 1010.8
20260506230020 11 162 0.0 0.0 0.03 0.25 0.03 94 1010.7
20260506224548 11 162 0.0 0.0 0.03 0.25 0.03 93 1010.8
20260506223019 11 162 0.0 0.0 0.03 0.25 0.03 93 1010.9
20260506221553 11 163 0.0 0.0 0.00 0.23 0.00 93 1010.7
20260506220035 11 162 0.0 0.0 0.00 0.23 0.00 93 1010.7
20260506214509 11 162 0.0 0.0 0.00 0.23 0.23 93 1010.6
20260506213039 12 162 0.0 0.0 0.00 0.23 0.23 93 1010.6
20260506211511 12 162 0.0 0.0 0.03 0.23 0.23 92 1010.4
20260506210044 12 162 0.0 0.0 0.03 0.23 0.23 92 1010.4
20260506204603 12 162 0.0 0.0 0.03 0.23 0.23 92 1010.3
20260506203032 12 162 0.0 0.0 0.03 0.23 0.23 90 1010.2
20260506201502 12 162 1.6 11.3 0.00 0.23 0.23 88 1009.9
20260506200024 12 162 0.0 12.9 0.00 0.23 0.23 86 1009.6
20260506194558 12 162 0.0 8.0 0.00 0.23 0.23 90 1009.5
20260506193019 12 162 0.0 0.0 0.00 0.23 0.23 90 1009.1
20260506191551 12 162 0.0 0.0 0.00 0.23 0.23 89 1009.0
20260506190021 12 162 0.0 0.0 0.00 0.23 0.23 89 1008.8
20260506184559 13 162 0.0 0.0 0.00 0.23 0.23 88 1008.7
20260506183036 13 162 0.0 0.0 0.00 0.23 0.23 86 1008.7
20260506181506 13 162 0.0 0.0 0.00 0.23 0.23 87 1008.5
20260506180031 13 162 0.0 0.0 0.00 0.23 0.23 86 1008.6
20260506174501 13 162 0.0 0.0 0.00 0.23 0.23 83 1008.4
20260506173033 14 162 0.0 0.0 0.00 0.23 0.23 81 1008.1
20260506171547 14 162 0.0 0.0 0.00 0.23 0.23 79 1008.0
20260506170017 14 162 0.0 9.7 0.00 0.23 0.23 79 1007.9
20260506164552 15 162 4.8 8.0 0.00 0.23 0.23 77 1007.7
20260506163019 15 162 0.0 1.6 0.00 0.23 0.23 80 1007.8
20260506161603 15 162 1.6 4.8 0.00 0.23 0.23 78 1007.8
20260506160034 15 162 0.0 0.0 0.00 0.23 0.23 79 1007.9
20260506154555 15 162 0.0 0.0 0.00 0.23 0.23 75 1008.0
20260506153023 14 162 0.0 3.2 0.00 0.23 0.23 75 1008.0
20260506151607 14 162 0.0 3.2 0.00 0.23 0.23 78 1008.1
20260506150031 14 162 0.0 8.0 0.00 0.23 0.23 78 1008.3
20260506144549 13 162 1.6 9.7 0.00 0.23 0.23 80 1008.2
20260506143041 13 162 4.8 9.7 0.00 0.23 0.23 83 1008.4
20260506141551 14 162 0.0 0.0 0.00 0.23 0.23 83 1008.5
20260506140030 14 162 0.0 4.8 0.00 0.23 0.23 81 1008.3
20260506134546 14 162 0.0 3.2 0.00 0.23 0.23 82 1008.1
20260506133028 14 162 0.0 0.0 0.03 0.23 0.23 83 1008.0
20260506131553 14 162 0.0 0.0 0.05 0.23 0.23 85 1008.1
20260506130020 13 162 0.0 0.0 0.05 0.23 0.23 84 1008.1
20260506124541 13 162 0.0 0.0 0.05 0.23 0.23 84 1008.1
20260506123011 13 162 0.0 0.0 0.03 0.20 0.20 85 1008.0
20260506121537 13 162 0.0 0.0 0.00 0.18 0.18 84 1007.9
20260506114539 13 162 1.6 11.3 0.05 0.18 0.18 82 1008.3
20260506113108 13 162 1.6 8.0 0.05 0.18 0.18 86 1008.8
20260506111550 13 162 0.0 0.0 0.08 0.18 0.18 88 1008.8
20260506110021 13 162 0.0 0.0 0.08 0.15 0.15 90 1008.9
20260506104543 13 162 0.0 0.0 0.05 0.15 0.15 88 1008.9
20260506103016 13 162 0.0 0.0 0.05 0.13 0.13 88 1009.0
20260506101554 13 162 0.0 0.0 0.03 0.10 0.10 88 1009.0
20260506100015 13 162 0.0 0.0 0.03 0.08 0.08 87 1009.0
20260506094555 13 162 0.0 0.0 0.03 0.08 0.08 87 1009.0
20260506093009 13 162 0.0 0.0 0.03 0.08 0.08 86 1009.1
20260506091541 13 162 0.0 0.0 0.03 0.08 0.08 87 1009.3
20260506090010 13 162 0.0 0.0 0.00 0.05 0.05 87 1009.4
20260506084535 13 162 0.0 0.0 0.00 0.05 0.05 87 1009.4
20260506083005 13 162 0.0 0.0 0.00 0.05 0.05 86 1009.3
20260506081529 13 162 0.0 0.0 0.03 0.05 0.05 89 1009.2
20260506073104 12 162 0.0 0.0 0.05 0.05 0.05 91 1009.2
20260506071518 13 162 0.0 0.0 0.03 0.05 0.05 90 1009.4
20260506061523 12 162 0.0 0.0 0.00 0.03 0.03 90 1009.9